AirNav   Everest Fuels
 
 1552 users online  

CL84 Ahlem Farms Airport
Hilmar, California, USA

GOING TO HILMAR?


FAA INFORMATION EFFECTIVE 04 NOVEMBER 2021

Location

FAA Identifier: CL84
Lat/Long: 37-23-17.7720N 120-55-38.7380W
37-23.296200N 120-55.645633W
37.3882700,-120.9274272
(estimated)
Elevation: 73 ft. / 22 m (estimated)
Variation: 16E (1985)
From city: 5 miles SW of HILMAR, CA
Time zone: UTC -7 (UTC -8 during Standard Time)
Zip code: 95324

Airport Operations

Airport use: Private use. Permission required prior to landing
Activation date: 02/1987
Control tower: no
ARTCC: OAKLAND CENTER
FSS: RANCHO MURIETA FLIGHT SERVICE STATION
Attendance: UNATNDD
Wind indicator: yes
Segmented circle: no
Lights: ACTVT PERI LGTS RY 08/26 - 5 CLICKS ON 122.7

Airport Communications

WX ASOS at MOD (14 nm N): 127.7 (209-572-0914)
WX AWOS-3 at MER (17 nm E): PHONE 209-725-0104
WX AWOS-3 at LSN (20 nm S): 118.675 (209-827-7084)

Nearby radio navigation aids

VOR radial/distance  VOR name  Freq  Var
MODr157/14.4MODESTO VOR/DME114.6017E
HYPr277/27.1EL NIDO VOR/DME114.2015E

Airport Services

Runway Information

Runway 8/26

Dimensions: 2617 x 40 ft. / 798 x 12 m
Surface: asphalt
Runway edge lights: PERI
PERIMETER LGTS OTS INDEFLY.
Runway edge markings: RWY MRKD WITH R
RUNWAY 8  RUNWAY 26
Traffic pattern: leftleft
Displaced threshold: 300 ft.200 ft.
Markings: NSTDNSTD
Obstructions: 15 ft. road5 ft. fence

Airport Ownership and Management from official FAA records

Ownership: Privately-owned
Owner: FRED HONORE
24343 WILLIAMS AVE.
HILMAR, CA 95324
Phone 209-634-6520
Manager: FRED HONORE
24343 WILLIAMS AVE.
HILMAR, CA 95324
Phone 209-634-6520

Airport Operational Statistics

Aircraft based on the field: 1
Single engine airplanes: 1
    

Additional Remarks

FOR CD CTC NORCAL APCH AT 916-361-0516.

Instrument Procedures

There are no published instrument procedures at CL84.

Some nearby airports with instrument procedures:

KMOD - Modesto City-County Airport-Harry Sham Field (14 nm N)
KMER - Castle Airport (17 nm E)
KLSN - Los Banos Municipal Airport (20 nm S)
KMCE - Merced Regional Airport/Macready Field (21 nm E)
O27 - Oakdale Airport (23 nm N)
 
Loc | Ops | Rwys | IFR | FBO | Links
Com | Nav | Svcs | Stats | Notes
Area around CL84 (Ahlem Farms Airport)
 
Road maps at: MapQuest Bing Google
 
Aerial photo
No photo
 
Sectional chart

 
Airport distance calculator
Flying to Ahlem Farms Airport? Find the distance to fly.

From to CL84

Sunrise and sunset
Times for 29-Nov-2021
 Local
(UTC-8)
 Zulu
(UTC)
Morning civil twilight06:3014:30
Sunrise06:5914:59
Sunset16:4600:46
Evening civil twilight17:1401:14

Current date and time
Zulu (UTC)  30-Nov-2021 01:01:45
Local (UTC-8)  29-Nov-2021 17:01:45
 
METAR
KMOD 
14nm N 
300053Z 31007KT 10SM CLR 17/11 A3010 RMK AO2 SLP191 T01720106
KMER 
17nm E 
300045Z 00000KT 6SM HZ SKC 16/11 A3010
KMCE 
21nm E 
300053Z AUTO 00000KT 6SM HZ CLR 17/09 A3009 RMK AO2 SLP191 T01720094
TAF
KMOD 
14nm N 
291720Z 2918/3018 VRB04KT 3SM HZ FEW250 FM292000 32006KT P6SM FEW250 FM300400 VRB03KT 3SM BR FEW250 FM300600 VRB02KT 1 1/2SM BR FEW250 TEMPO 3008/3012 1/4SM FG VV003 FM301200 VRB02KT 1/4SM FG VV002
KMER 
17nm E 
291720Z 2918/3018 00000KT 6SM HZ SKC TEMPO 2918/2922 5SM HZ FM300600 00000KT 4SM BR SKC FM301400 07002KT 2SM BR SKC
NOTAMs
Click for the latest NOTAMs
NOTAMs are issued by the DoD/FAA and will open in a separate window not controlled by AirNav.

 

 
 

Would you like to see your business listed on this page?

 If your business provides an interesting product or service to pilots, flight crews, aircraft, or users of the Ahlem Farms Airport, you should consider listing it here.  To start the listing process, click on the button below
 
Add a business
 

Other Pages about Ahlem Farms Airport

Update a link
 
Copyright © AirNav, LLC. All rights reserved. Privacy Policy  Contact